Flag for Canada Weather past 2 weeks in Edmonton, Alberta, Canada

Now
59 °F

Cool.


Feels Like: 59 °F
Forecast: 51 / 80 °F
Wind: 2 mph from Southwest

Location: Edmonton Municipal

Current Time: Aug 28, 2015 at 4:09:44 AM

Latest Report: Aug 28, 2015 at 3:00 AM


Visibility: N/A

Pressure: 29.78 "Hg (27.43 "Hg at 692m altitude)

Humidity: 85%

Dew point: 55 °F

Location of EdmontonLocation

Historic Weather in Edmonton — Graph

°F

Edmonton temperature yesterday

Maximum temperature yesterday: 79 °F (at 4:00 PM)
Minimum temperature yesterday: 55 °F (at 6:00 AM)
Average temperature yesterday: 67 °F

Past Weeks' High & Low Weather Summary

 TemperatureHumidityPressure
High87 °F (Aug 13, 4:00 PM)95% (Aug 18, 6:00 AM)30.25 "Hg (Aug 18, 6:00 AM)
Low43 °F (Aug 22, 4:00 AM)26% (Aug 13, 4:00 PM)29.63 "Hg (Aug 19, 4:00 PM)
Average61 °F60%29.98 "Hg
* Reported Aug 13 3:00 AM — Aug 28 3:00 AM, Edmonton, Weather by CustomWeather, © 2015

Note: Actual official high and low records may vary slightly from our data, if they occured in-between our weather recording intervals... More about our weather records

Advertising

Edmonton weather history for previous 24 hours

 ConditionsComfort  
Time TempWeatherWind HumidityBarometerVisibility
3:00 AM
Fri, Aug 28
59 °FCool.2 mph85%29.78 "HgN/A
2:00 AM62 °FCool.5 mph81%29.76 "HgN/A
1:00 AM64 °FMild.1 mph75%29.76 "HgN/A
12:00 AM65 °FMild.3 mph73%29.76 "HgN/A
11:00 PM
Thu, Aug 27
69 °FMild.6 mph62%29.77 "HgN/A
10:00 PM70 °FMild.6 mph58%29.77 "HgN/A
9:00 PM72 °FMild.6 mph48%29.77 "HgN/A
8:00 PM74 °FMild.3 mph39%29.77 "HgN/A
7:00 PM77 °FPleasantly warm.6 mph34%29.78 "HgN/A
6:00 PM78 °FPleasantly warm.6 mph34%29.79 "HgN/A
5:00 PM78 °FPleasantly warm.5 mph38%29.79 "HgN/A
4:00 PM79 °FWarm.6 mph41%29.81 "HgN/A
3:00 PM79 °FWarm.5 mph41%29.83 "HgN/A
2:00 PM77 °FMild.6 mph45%29.85 "HgN/A
1:00 PM75 °FMild.6 mph50%29.88 "HgN/A
12:00 PM72 °FMild.5 mph54%29.90 "HgN/A
11:00 AM68 °FMild.2 mph65%29.91 "HgN/A
10:00 AM65 °FMild.2 mph73%29.92 "HgN/A
9:00 AM61 °FCool.2 mph84%29.94 "HgN/A
8:00 AM58 °FCool.2 mph86%29.95 "HgN/A
7:00 AM56 °FCool.No wind90%29.95 "HgN/A
6:00 AM55 °FCool.2 mph90%29.96 "HgN/A
5:00 AM56 °FCool.No wind90%29.96 "HgN/A
4:00 AM56 °FCool.No wind89%29.98 "HgN/A
Weather by CustomWeather, © 2015

See weather overviewHow to use our weather pages